This is the latest recevied weather packets stored in our database for station/object WW5JC. If no packets are shown the sender has not sent any weather packets the latest 10 day(s).
| Time | Temp. | Humidity | Pressure | Rain* | Wind** | Luminosity | Snow |
|---|---|---|---|---|---|---|---|
| 1778076411 | 12.22° C | 91% | 1015.1 hPa | 0 mm | - | 71 W/m² | - |
| 1778076108 | 12.22° C | 91% | 1015.2 hPa | 0 mm | - | 76 W/m² | - |
| 1778075805 | 12.22° C | 91% | 1015.1 hPa | 0 mm | - | 56 W/m² | - |
| 1778075501 | 12.22° C | 91% | 1015.1 hPa | 0 mm | - | 47 W/m² | - |
| 1778075198 | 12.22° C | 91% | 1015 hPa | 0 mm | - | 50 W/m² | - |
| 1778074893 | 12.22° C | 91% | 1015 hPa | 0 mm | - | 54 W/m² | - |
| 1778074591 | 12.22° C | 91% | 1015 hPa | 0 mm | - | 54 W/m² | - |
| 1778074288 | 12.22° C | 91% | 1015.3 hPa | 0 mm | - | 37 W/m² | - |
| 1778073985 | 12.22° C | 91% | 1015.1 hPa | 0 mm | - | 40 W/m² | - |
| 1778073682 | 12.22° C | 91% | 1015 hPa | 0 mm | - | 34 W/m² | - |
| 1778073380 | 12.22° C | 90% | 1014.9 hPa | 0 mm | - | 31 W/m² | - |
| 1778073075 | 12.22° C | 90% | 1014.9 hPa | 0 mm | - | 46 W/m² | - |
| 1778072773 | 12.22° C | 90% | 1015 hPa | 0 mm | - | 35 W/m² | - |
| 1778072470 | 12.22° C | 90% | 1014.9 hPa | 0 mm | - | 27 W/m² | - |
| 1778072168 | 12.22° C | 90% | 1015 hPa | 0 mm | - | 20 W/m² | - |
| 1778071866 | 12.22° C | 90% | 1015 hPa | 0 mm | - | 18 W/m² | - |
| 1778071563 | 12.22° C | 90% | 1014.6 hPa | 0 mm | - | 22 W/m² | - |
| 1778071261 | 11.67° C | 91% | 1014.5 hPa | 0 mm | - | 24 W/m² | - |
| 1778070958 | 11.67° C | 90% | 1014.3 hPa | 0 mm | - | 19 W/m² | - |
| 1778070657 | 11.67° C | 90% | 1014.3 hPa | 0 mm | - | 15 W/m² | - |
| 1778070353 | 11.67° C | 90% | 1014.2 hPa | 0 mm | - | 14 W/m² | - |
| 1778070051 | 11.67° C | 90% | 1014 hPa | 0 mm | - | 14 W/m² | - |
| 1778069748 | 11.67° C | 90% | 1014.1 hPa | 0 mm | - | 10 W/m² | - |
| 1778069444 | 11.67° C | 90% | 1014 hPa | 0 mm | - | 10 W/m² | - |
| 1778069143 | 12.22° C | 90% | 1013.8 hPa | 0 mm | - | 9 W/m² | - |
* Rain latest hour (hover to see other rain measurements)
** Current wind speed in m/s (hover to see current wind gust speed)